| time (UTC) | temp F | wind direction | speed MPH | gust MPH | rain 1hr in | rain 24hr in | rain mn in | humidity % | barometer mb |
| 20260507015941 | 38 | 5 | 1.0 | 2.0 | 0.00 | 0.00 | 0.00 | 66 | 1010.5 |
| 20260507015440 | 39 | 311 | 0.0 | 3.0 | 0.00 | 0.00 | 0.00 | 64 | 1010.4 |
| 20260507014936 | 40 | 346 | 2.0 | 3.0 | 0.00 | 0.00 | 0.00 | 61 | 1010.5 |
| 20260507014433 | 40 | 306 | 2.0 | 4.0 | 0.00 | 0.00 | 0.00 | 61 | 1010.5 |
| 20260507013929 | 40 | 350 | 1.0 | 4.0 | 0.00 | 0.00 | 0.00 | 61 | 1010.4 |
| 20260507013426 | 40 | 331 | 0.0 | 3.0 | 0.00 | 0.00 | 0.00 | 61 | 1010.3 |
| 20260507012924 | 40 | 344 | 2.0 | 3.0 | 0.00 | 0.00 | 0.00 | 61 | 1010.2 |
| 20260507012420 | 41 | 6 | 2.0 | 4.0 | 0.00 | 0.00 | 0.00 | 61 | 1010.3 |
| 20260507011916 | 41 | 4 | 4.0 | 5.0 | 0.00 | 0.00 | 0.00 | 60 | 1010.4 |
| 20260507011413 | 41 | 0 | 3.0 | 4.0 | 0.00 | 0.00 | 0.00 | 59 | 1010.3 |
| 20260507010908 | 42 | 333 | 2.0 | 4.0 | 0.00 | 0.00 | 0.00 | 58 | 1010.2 |
| 20260507010403 | 42 | 323 | 2.0 | 6.0 | 0.00 | 0.00 | 0.00 | 57 | 1010.3 |
| 20260507005900 | 42 | 314 | 2.0 | 6.0 | 0.00 | 0.00 | 0.00 | 58 | 1010.2 |
| 20260507005356 | 42 | 329 | 2.0 | 6.0 | 0.00 | 0.00 | 0.00 | 56 | 1010.3 |
| 20260507004848 | 42 | 264 | 0.0 | 5.0 | 0.00 | 0.00 | 0.00 | 56 | 1010.2 |
| 20260507004345 | 43 | 5 | 3.0 | 6.0 | 0.00 | 0.00 | 0.00 | 56 | 1010.2 |
| 20260507003843 | 43 | 283 | 3.0 | 8.0 | 0.00 | 0.00 | 0.00 | 54 | 1010.1 |
| 20260507003338 | 44 | 313 | 7.0 | 9.0 | 0.00 | 0.00 | 0.00 | 54 | 1010.1 |
| 20260507002833 | 44 | 339 | 3.0 | 11.0 | 0.00 | 0.00 | 0.00 | 54 | 1010.1 |
| 20260507002329 | 44 | 336 | 2.0 | 9.0 | 0.00 | 0.00 | 0.00 | 53 | 1010.1 |
| 20260507001827 | 45 | 23 | 3.0 | 9.0 | 0.00 | 0.00 | 0.00 | 52 | 1010.2 |
| 20260507001324 | 44 | 312 | 3.0 | 10.0 | 0.00 | 0.00 | 0.00 | 52 | 1010.3 |
| 20260507000820 | 44 | 200 | 2.0 | 9.0 | 0.00 | 0.00 | 0.00 | 53 | 1010.2 |
| 20260507000316 | 44 | 326 | 4.0 | 8.0 | 0.00 | 0.00 | 0.00 | 52 | 1010.4 |
| 20260506235812 | 44 | 104 | 1.0 | 8.0 | 0.00 | 0.00 | 0.00 | 53 | 1010.3 |
| 20260506235309 | 44 | 339 | 3.0 | 11.0 | 0.00 | 0.00 | 0.00 | 52 | 1010.2 |
| 20260506234805 | 44 | 342 | 5.0 | 9.0 | 0.00 | 0.00 | 0.00 | 51 | 1010.2 |
| 20260506234303 | 45 | 0 | 8.0 | 14.0 | 0.00 | 0.00 | 0.00 | 50 | 1010.1 |
| 20260506233800 | 45 | 298 | 6.0 | 12.0 | 0.00 | 0.00 | 0.00 | 51 | 1010.2 |
| 20260506233256 | 44 | 335 | 4.0 | 12.0 | 0.00 | 0.00 | 0.00 | 50 | 1010.2 |
| 20260506232753 | 45 | 343 | 7.0 | 16.0 | 0.00 | 0.00 | 0.00 | 50 | 1010.2 |
| 20260506232248 | 45 | 313 | 4.0 | 11.0 | 0.00 | 0.00 | 0.00 | 50 | 1010.2 |
| 20260506231745 | 45 | 333 | 5.0 | 10.0 | 0.00 | 0.00 | 0.00 | 50 | 1010.2 |
| 20260506231244 | 46 | 345 | 3.0 | 13.0 | 0.00 | 0.00 | 0.00 | 50 | 1010.2 |
| 20260506230740 | 46 | 28 | 7.0 | 17.0 | 0.00 | 0.00 | 0.00 | 51 | 1010.2 |
| 20260506230237 | 46 | 313 | 4.0 | 11.0 | 0.00 | 0.00 | 0.00 | 50 | 1010.3 |
| 20260506225733 | 45 | 303 | 5.0 | 7.0 | 0.00 | 0.00 | 0.00 | 50 | 1010.2 |
| 20260506225231 | 45 | 354 | 4.0 | 8.0 | 0.00 | 0.00 | 0.00 | 50 | 1010.3 |
| 20260506224727 | 44 | 3 | 7.0 | 12.0 | 0.00 | 0.00 | 0.00 | 51 | 1010.4 |
| 20260506224224 | 44 | 319 | 9.0 | 11.0 | 0.00 | 0.00 | 0.00 | 51 | 1010.6 |
| 20260506223720 | 44 | 297 | 2.0 | 14.0 | 0.00 | 0.00 | 0.00 | 51 | 1010.3 |
| 20260506223216 | 45 | 305 | 8.0 | 15.0 | 0.00 | 0.00 | 0.00 | 49 | 1010.4 |
| 20260506222714 | 45 | 301 | 5.0 | 11.0 | 0.00 | 0.00 | 0.00 | 50 | 1010.5 |
| 20260506222208 | 44 | 295 | 5.0 | 14.0 | 0.00 | 0.00 | 0.00 | 51 | 1010.5 |
| 20260506221707 | 44 | 353 | 9.0 | 13.0 | 0.00 | 0.00 | 0.00 | 52 | 1010.4 |
| 20260506221205 | 44 | 302 | 4.0 | 15.0 | 0.00 | 0.00 | 0.00 | 51 | 1010.4 |
| 20260506220702 | 44 | 279 | 7.0 | 15.0 | 0.00 | 0.00 | 0.00 | 50 | 1010.4 |
| 20260506220156 | 45 | 321 | 7.0 | 17.0 | 0.00 | 0.00 | 0.00 | 51 | 1010.6 |
| 20260506215653 | 44 | 261 | 4.0 | 20.0 | 0.00 | 0.00 | 0.00 | 51 | 1010.6 |
| 20260506215148 | 44 | 309 | 4.0 | 13.0 | 0.00 | 0.00 | 0.00 | 51 | 1010.6 |
| 20260506214646 | 44 | 298 | 3.0 | 10.0 | 0.00 | 0.00 | 0.00 | 51 | 1010.6 |
| 20260506214143 | 44 | 31 | 0.0 | 10.0 | 0.00 | 0.00 | 0.00 | 51 | 1010.6 |
| 20260506213642 | 44 | 299 | 8.0 | 15.0 | 0.00 | 0.00 | 0.00 | 51 | 1010.7 |
| 20260506213139 | 43 | 246 | 3.0 | 12.0 | 0.00 | 0.00 | 0.00 | 52 | 1010.8 |
| 20260506212636 | 43 | 129 | 6.0 | 14.0 | 0.00 | 0.00 | 0.00 | 51 | 1010.9 |
| 20260506212130 | 43 | 319 | 6.0 | 14.0 | 0.00 | 0.00 | 0.00 | 52 | 1010.7 |
| 20260506211626 | 43 | 310 | 4.0 | 15.0 | 0.00 | 0.00 | 0.00 | 52 | 1011.0 |
| 20260506211123 | 43 | 236 | 3.0 | 14.0 | 0.00 | 0.00 | 0.00 | 52 | 1010.9 |
| 20260506210620 | 43 | 343 | 5.0 | 17.0 | 0.00 | 0.00 | 0.00 | 52 | 1011.1 |
| 20260506210117 | 43 | 314 | 3.0 | 20.0 | 0.00 | 0.00 | 0.00 | 52 | 1010.7 |
| 20260506205614 | 43 | 318 | 5.0 | 13.0 | 0.00 | 0.00 | 0.00 | 51 | 1011.0 |
| 20260506205108 | 43 | 159 | 2.0 | 22.0 | 0.00 | 0.00 | 0.00 | 51 | 1011.0 |
| 20260506204607 | 43 | 218 | 3.0 | 15.0 | 0.00 | 0.00 | 0.00 | 52 | 1011.0 |
| 20260506204103 | 43 | 292 | 6.0 | 15.0 | 0.00 | 0.00 | 0.00 | 53 | 1010.9 |
| 20260506203602 | 43 | 291 | 5.0 | 14.0 | 0.00 | 0.00 | 0.00 | 52 | 1011.0 |
| 20260506203058 | 43 | 301 | 4.0 | 11.0 | 0.00 | 0.00 | 0.00 | 51 | 1011.0 |
| 20260506202556 | 43 | 264 | 4.0 | 14.0 | 0.00 | 0.00 | 0.00 | 52 | 1010.8 |
| 20260506202052 | 42 | 272 | 3.0 | 15.0 | 0.00 | 0.00 | 0.00 | 52 | 1011.1 |
| 20260506201549 | 42 | 257 | 5.0 | 11.0 | 0.00 | 0.00 | 0.00 | 53 | 1011.0 |
| 20260506201046 | 42 | 316 | 4.0 | 17.0 | 0.00 | 0.00 | 0.00 | 52 | 1011.0 |
| 20260506200542 | 42 | 313 | 7.0 | 14.0 | 0.00 | 0.00 | 0.00 | 53 | 1011.0 |
| 20260506200039 | 42 | 309 | 10.0 | 19.0 | 0.00 | 0.00 | 0.00 | 52 | 1011.1 |
| 20260506195536 | 42 | 218 | 0.0 | 12.0 | 0.00 | 0.00 | 0.00 | 53 | 1011.1 |
| 20260506195032 | 42 | 274 | 6.0 | 19.0 | 0.00 | 0.00 | 0.00 | 53 | 1011.1 |
| 20260506194530 | 42 | 303 | 3.0 | 10.0 | 0.00 | 0.00 | 0.00 | 53 | 1011.1 |
| 20260506194026 | 42 | 318 | 2.0 | 15.0 | 0.00 | 0.00 | 0.00 | 53 | 1011.0 |
| 20260506193523 | 42 | 259 | 5.0 | 14.0 | 0.00 | 0.00 | 0.00 | 53 | 1011.1 |
| 20260506193021 | 42 | 278 | 5.0 | 13.0 | 0.00 | 0.00 | 0.00 | 53 | 1011.3 |
| 20260506192517 | 42 | 161 | 2.0 | 13.0 | 0.00 | 0.00 | 0.00 | 52 | 1011.2 |
| 20260506192013 | 42 | 32 | 3.0 | 15.0 | 0.00 | 0.00 | 0.00 | 52 | 1011.1 |
| 20260506191510 | 43 | 242 | 3.0 | 12.0 | 0.00 | 0.00 | 0.00 | 53 | 1011.2 |
| 20260506191006 | 42 | 322 | 7.0 | 23.0 | 0.00 | 0.00 | 0.00 | 52 | 1011.1 |
| 20260506190503 | 42 | 310 | 4.0 | 26.0 | 0.00 | 0.00 | 0.00 | 52 | 1011.0 |
| 20260506190000 | 42 | 78 | 2.0 | 10.0 | 0.00 | 0.00 | 0.00 | 51 | 1011.1 |
| 20260506185458 | 42 | 312 | 10.0 | 16.0 | 0.00 | 0.00 | 0.00 | 52 | 1011.3 |
| 20260506184954 | 42 | 273 | 7.0 | 12.0 | 0.00 | 0.00 | 0.00 | 52 | 1011.3 |
| 20260506184451 | 42 | 309 | 5.0 | 14.0 | 0.00 | 0.00 | 0.00 | 52 | 1011.3 |
| 20260506183943 | 42 | 241 | 6.0 | 22.0 | 0.00 | 0.00 | 0.00 | 52 | 1011.1 |
| 20260506183438 | 41 | 327 | 4.0 | 20.0 | 0.00 | 0.00 | 0.00 | 52 | 1011.1 |
| 20260506182935 | 42 | 291 | 6.0 | 15.0 | 0.00 | 0.00 | 0.00 | 52 | 1011.1 |
| 20260506182433 | 42 | 273 | 5.0 | 17.0 | 0.00 | 0.00 | 0.00 | 52 | 1011.1 |
| 20260506181930 | 42 | 326 | 5.0 | 10.0 | 0.00 | 0.00 | 0.00 | 52 | 1011.0 |
| 20260506181428 | 42 | 5 | 2.0 | 13.0 | 0.00 | 0.00 | 0.00 | 52 | 1011.1 |
| 20260506180924 | 42 | 343 | 8.0 | 15.0 | 0.00 | 0.00 | 0.00 | 52 | 1011.3 |
| 20260506180420 | 42 | 204 | 2.0 | 14.0 | 0.00 | 0.00 | 0.00 | 52 | 1011.0 |
| 20260506175918 | 42 | 268 | 4.0 | 11.0 | 0.00 | 0.00 | 0.00 | 50 | 1011.1 |
| 20260506175414 | 42 | 0 | 3.0 | 20.0 | 0.00 | 0.00 | 0.00 | 51 | 1011.1 |
| 20260506174911 | 42 | 111 | 2.0 | 15.0 | 0.00 | 0.00 | 0.00 | 52 | 1011.0 |
| 20260506174408 | 42 | 248 | 6.0 | 15.0 | 0.00 | 0.00 | 0.00 | 52 | 1011.1 |
| 20260506173906 | 42 | 180 | 7.0 | 14.0 | 0.00 | 0.00 | 0.00 | 52 | 1011.1 |
| 20260506173402 | 42 | 329 | 19.0 | 19.0 | 0.00 | 0.00 | 0.00 | 52 | 1011.2 |
| 20260506172900 | 42 | 102 | 2.0 | 26.0 | 0.00 | 0.00 | 0.00 | 53 | 1011.1 |
| 20260506172356 | 43 | 226 | 2.0 | 11.0 | 0.00 | 0.00 | 0.00 | 53 | 1011.2 |
| 20260506171853 | 43 | 330 | 2.0 | 14.0 | 0.00 | 0.00 | 0.00 | 53 | 1011.2 |
| 20260506171351 | 42 | 282 | 3.0 | 11.0 | 0.00 | 0.00 | 0.00 | 53 | 1011.6 |
| 20260506170848 | 42 | 217 | 5.0 | 15.0 | 0.00 | 0.00 | 0.00 | 52 | 1011.1 |
| 20260506170343 | 42 | 258 | 2.0 | 15.0 | 0.00 | 0.00 | 0.00 | 51 | 1011.0 |
| 20260506165837 | 42 | 257 | 4.0 | 15.0 | 0.00 | 0.00 | 0.00 | 53 | 1011.1 |
| 20260506165334 | 43 | 350 | 7.0 | 17.0 | 0.00 | 0.00 | 0.00 | 52 | 1011.5 |
| 20260506164825 | 42 | 327 | 7.0 | 17.0 | 0.00 | 0.00 | 0.00 | 52 | 1011.1 |
| 20260506164322 | 43 | 286 | 3.0 | 20.0 | 0.00 | 0.00 | 0.00 | 51 | 1011.2 |
| 20260506163820 | 43 | 295 | 4.0 | 16.0 | 0.00 | 0.00 | 0.00 | 53 | 1011.2 |
| 20260506163314 | 43 | 313 | 7.0 | 28.0 | 0.00 | 0.00 | 0.00 | 53 | 1011.2 |
| 20260506162810 | 42 | 323 | 6.0 | 23.0 | 0.00 | 0.00 | 0.00 | 52 | 1011.0 |
| 20260506162308 | 42 | 313 | 4.0 | 22.0 | 0.00 | 0.00 | 0.00 | 52 | 1011.0 |
| 20260506161804 | 43 | 216 | 10.0 | 16.0 | 0.00 | 0.00 | 0.00 | 53 | 1011.0 |
| 20260506161302 | 43 | 306 | 5.0 | 22.0 | 0.00 | 0.00 | 0.00 | 51 | 1011.0 |
| 20260506160754 | 42 | 287 | 8.0 | 27.0 | 0.00 | 0.00 | 0.00 | 51 | 1010.8 |
| 20260506160250 | 42 | 10 | 2.0 | 29.0 | 0.00 | 0.00 | 0.00 | 52 | 1011.1 |
| 20260506155749 | 43 | 318 | 11.0 | 23.0 | 0.00 | 0.00 | 0.00 | 51 | 1010.8 |
| 20260506155245 | 43 | 323 | 4.0 | 14.0 | 0.00 | 0.00 | 0.00 | 51 | 1010.8 |
| 20260506153353 | 46 | 72 | 3.0 | 19.0 | 0.00 | 0.00 | 0.00 | 49 | 1010.6 |
| 20260506152850 | 44 | 319 | 5.0 | 16.0 | 0.00 | 0.00 | 0.00 | 50 | 1010.6 |
| 20260506152347 | 43 | 211 | 5.0 | 19.0 | 0.00 | 0.00 | 0.00 | 51 | 1010.7 |
| 20260506151845 | 42 | 203 | 7.0 | 18.0 | 0.00 | 0.00 | 0.00 | 51 | 1010.8 |
| 20260506151342 | 43 | 288 | 3.0 | 16.0 | 0.00 | 0.00 | 0.00 | 51 | 1010.7 |
| 20260506150839 | 44 | 338 | 5.0 | 23.0 | 0.00 | 0.00 | 0.00 | 48 | 1010.9 |
| 20260506150335 | 45 | 288 | 4.0 | 16.0 | 0.00 | 0.00 | 0.00 | 51 | 1010.7 |
| 20260506145832 | 43 | 286 | 3.0 | 15.0 | 0.00 | 0.00 | 0.00 | 52 | 1010.9 |
| 20260506145329 | 42 | 352 | 3.0 | 20.0 | 0.00 | 0.00 | 0.00 | 52 | 1010.6 |
| 20260506144826 | 43 | 287 | 9.0 | 14.0 | 0.00 | 0.00 | 0.00 | 53 | 1010.8 |
| 20260506144322 | 43 | 265 | 3.0 | 14.0 | 0.00 | 0.00 | 0.00 | 54 | 1010.7 |
| 20260506143821 | 43 | 309 | 5.0 | 15.0 | 0.00 | 0.00 | 0.00 | 54 | 1011.1 |
| 20260506143318 | 43 | 337 | 7.0 | 13.0 | 0.00 | 0.00 | 0.00 | 52 | 1011.0 |
| 20260506142816 | 43 | 322 | 7.0 | 19.0 | 0.00 | 0.00 | 0.00 | 53 | 1010.8 |
| 20260506142314 | 43 | 35 | 3.0 | 17.0 | 0.00 | 0.00 | 0.00 | 54 | 1010.9 |
| 20260506141812 | 43 | 283 | 3.0 | 9.0 | 0.00 | 0.00 | 0.00 | 53 | 1010.9 |
| 20260506141310 | 44 | 236 | 3.0 | 13.0 | 0.00 | 0.00 | 0.00 | 51 | 1010.7 |
| 20260506140807 | 43 | 313 | 7.0 | 12.0 | 0.00 | 0.00 | 0.00 | 55 | 1010.5 |
| 20260506140304 | 42 | 359 | 3.0 | 12.0 | 0.00 | 0.00 | 0.00 | 54 | 1010.9 |
| 20260506135801 | 42 | 351 | 6.0 | 9.0 | 0.00 | 0.00 | 0.00 | 54 | 1010.8 |
| 20260506135257 | 43 | 4 | 4.0 | 11.0 | 0.00 | 0.00 | 0.00 | 56 | 1010.8 |
| 20260506134754 | 43 | 187 | 2.0 | 14.0 | 0.00 | 0.00 | 0.00 | 57 | 1010.6 |
| 20260506134250 | 42 | 230 | 2.0 | 6.0 | 0.00 | 0.00 | 0.00 | 59 | 1010.8 |
| 20260506133747 | 41 | 314 | 5.0 | 11.0 | 0.00 | 0.00 | 0.00 | 59 | 1010.6 |
| 20260506133244 | 41 | 355 | 5.0 | 12.0 | 0.00 | 0.00 | 0.00 | 61 | 1010.7 |
| 20260506132741 | 40 | 324 | 5.0 | 11.0 | 0.00 | 0.00 | 0.00 | 63 | 1010.7 |
| 20260506132238 | 39 | 296 | 4.0 | 12.0 | 0.00 | 0.00 | 0.00 | 66 | 1010.6 |
| 20260506131736 | 39 | 337 | 4.0 | 8.0 | 0.00 | 0.00 | 0.00 | 68 | 1010.7 |
| 20260506131232 | 38 | 337 | 3.0 | 7.0 | 0.00 | 0.00 | 0.00 | 70 | 1010.8 |
| 20260506130729 | 37 | 340 | 5.0 | 6.0 | 0.00 | 0.00 | 0.00 | 69 | 1010.6 |
| 20260506130226 | 37 | 82 | 0.0 | 5.0 | 0.00 | 0.00 | 0.00 | 71 | 1010.4 |
| 20260506125724 | 37 | 125 | 2.0 | 3.0 | 0.00 | 0.00 | 0.00 | 72 | 1010.5 |
| 20260506125222 | 36 | 152 | 1.0 | 5.0 | 0.00 | 0.00 | 0.00 | 74 | 1010.5 |
| 20260506124719 | 35 | 314 | 2.0 | 5.0 | 0.00 | 0.00 | 0.00 | 75 | 1010.4 |
| 20260506124217 | 34 | 229 | 0.0 | 4.0 | 0.00 | 0.00 | 0.00 | 76 | 1010.2 |
| 20260506123714 | 34 | 344 | 2.0 | 3.0 | 0.00 | 0.00 | 0.00 | 76 | 1010.3 |
| 20260506123213 | 33 | 6 | 1.0 | 3.0 | 0.00 | 0.00 | 0.00 | 77 | 1010.1 |
| 20260506122709 | 33 | 341 | 0.0 | 3.0 | 0.00 | 0.00 | 0.00 | 77 | 1010.1 |
| 20260506122207 | 33 | 38 | 2.0 | 3.0 | 0.00 | 0.00 | 0.00 | 77 | 1010.1 |
| 20260506121705 | 33 | 0 | 0.0 | 4.0 | 0.00 | 0.00 | 0.00 | 76 | 1010.1 |
| 20260506121201 | 34 | 26 | 2.0 | 4.0 | 0.00 | 0.00 | 0.00 | 74 | 1010.1 |
| 20260506120659 | 33 | 58 | 1.0 | 7.0 | 0.00 | 0.00 | 0.00 | 75 | 1010.2 |
| 20260506120156 | 32 | 316 | 0.0 | 5.0 | 0.00 | 0.00 | 0.00 | 78 | 1009.8 |
| 20260506115654 | 30 | 311 | 2.0 | 6.0 | 0.00 | 0.00 | 0.00 | 82 | 1009.7 |
| 20260506115152 | 30 | 23 | 2.0 | 4.0 | 0.00 | 0.00 | 0.00 | 83 | 1009.6 |
| 20260506114649 | 29 | 20 | 1.0 | 5.0 | 0.00 | 0.00 | 0.00 | 84 | 1009.6 |
| 20260506114147 | 28 | 281 | 2.0 | 5.0 | 0.00 | 0.00 | 0.00 | 84 | 1009.7 |
| 20260506113645 | 28 | 327 | 2.0 | 5.0 | 0.00 | 0.00 | 0.00 | 85 | 1009.7 |
| 20260506113142 | 28 | 297 | 3.0 | 5.0 | 0.00 | 0.00 | 0.00 | 85 | 1009.6 |
| 20260506112638 | 28 | 344 | 0.0 | 4.0 | 0.00 | 0.00 | 0.00 | 85 | 1009.5 |
| 20260506112136 | 28 | 346 | 2.0 | 5.0 | 0.00 | 0.00 | 0.00 | 86 | 1009.5 |
| 20260506111633 | 28 | 38 | 2.0 | 6.0 | 0.00 | 0.00 | 0.00 | 86 | 1009.7 |
| 20260506111131 | 27 | 291 | 0.0 | 4.0 | 0.00 | 0.00 | 0.00 | 86 | 1009.6 |
| 20260506110628 | 27 | 272 | 1.0 | 4.0 | 0.00 | 0.00 | 0.00 | 86 | 1009.5 |
| 20260506110125 | 28 | 242 | 1.0 | 4.0 | 0.00 | 0.00 | 0.00 | 86 | 1009.7 |
| 20260506105622 | 28 | 119 | 0.0 | 4.0 | 0.00 | 0.00 | 0.00 | 86 | 1009.5 |
| 20260506105119 | 27 | 313 | 1.0 | 3.0 | 0.00 | 0.00 | 0.00 | 86 | 1009.3 |
| 20260506104617 | 28 | 39 | 0.0 | 4.0 | 0.00 | 0.00 | 0.00 | 85 | 1009.4 |
| 20260506104114 | 28 | 329 | 3.0 | 4.0 | 0.00 | 0.00 | 0.00 | 86 | 1009.2 |
| 20260506103612 | 28 | 27 | 2.0 | 3.0 | 0.00 | 0.00 | 0.00 | 85 | 1009.1 |
| 20260506103108 | 28 | 347 | 2.0 | 4.0 | 0.00 | 0.00 | 0.00 | 85 | 1009.1 |
| 20260506102607 | 28 | 344 | 2.0 | 4.0 | 0.00 | 0.00 | 0.00 | 84 | 1009.3 |
| 20260506102104 | 29 | 19 | 2.0 | 4.0 | 0.00 | 0.00 | 0.00 | 84 | 1008.7 |
| 20260506101600 | 29 | 9 | 2.0 | 4.0 | 0.00 | 0.00 | 0.00 | 85 | 1009.4 |
| 20260506101057 | 29 | 24 | 1.0 | 3.0 | 0.00 | 0.00 | 0.00 | 85 | 1009.1 |
| 20260506100555 | 29 | 338 | 0.0 | 3.0 | 0.00 | 0.00 | 0.00 | 84 | 1009.0 |
| 20260506100053 | 29 | 269 | 0.0 | 4.0 | 0.00 | 0.00 | 0.00 | 83 | 1009.0 |
| 20260506095552 | 29 | 310 | 3.0 | 4.0 | 0.00 | 0.00 | 0.00 | 83 | 1008.9 |
| 20260506095048 | 29 | 356 | 2.0 | 4.0 | 0.00 | 0.00 | 0.00 | 84 | 1008.9 |
| 20260506094545 | 29 | 350 | 1.0 | 3.0 | 0.00 | 0.00 | 0.00 | 83 | 1008.7 |
| 20260506094043 | 29 | 17 | 1.0 | 2.0 | 0.00 | 0.00 | 0.00 | 83 | 1009.0 |
| 20260506093541 | 30 | 354 | 2.0 | 4.0 | 0.00 | 0.00 | 0.00 | 82 | 1009.0 |
| 20260506093038 | 30 | 341 | 2.0 | 3.0 | 0.00 | 0.00 | 0.00 | 82 | 1009.0 |
| 20260506092536 | 30 | 356 | 2.0 | 4.0 | 0.00 | 0.00 | 0.00 | 82 | 1008.8 |
| 20260506092033 | 30 | 334 | 3.0 | 4.0 | 0.00 | 0.00 | 0.00 | 82 | 1008.8 |
| 20260506091531 | 30 | 345 | 2.0 | 3.0 | 0.00 | 0.00 | 0.00 | 81 | 1008.5 |
| 20260506091028 | 30 | 350 | 2.0 | 4.0 | 0.00 | 0.00 | 0.00 | 82 | 1008.6 |
| 20260506090526 | 30 | 352 | 2.0 | 4.0 | 0.00 | 0.00 | 0.00 | 82 | 1008.7 |
| 20260506090022 | 30 | 11 | 3.0 | 4.0 | 0.00 | 0.00 | 0.00 | 81 | 1008.8 |
| 20260506085519 | 30 | 3 | 2.0 | 3.0 | 0.00 | 0.00 | 0.00 | 81 | 1008.7 |
| 20260506085015 | 30 | 359 | 2.0 | 4.0 | 0.00 | 0.00 | 0.00 | 81 | 1008.7 |
| 20260506084512 | 30 | 348 | 2.0 | 3.0 | 0.00 | 0.00 | 0.00 | 81 | 1008.9 |
| 20260506084008 | 30 | 15 | 2.0 | 4.0 | 0.00 | 0.00 | 0.00 | 81 | 1008.7 |
| 20260506083506 | 31 | 13 | 2.0 | 3.0 | 0.00 | 0.00 | 0.00 | 80 | 1008.8 |
| 20260506083003 | 31 | 0 | 1.0 | 3.0 | 0.00 | 0.00 | 0.00 | 80 | 1008.9 |
| 20260506082500 | 31 | 311 | 0.0 | 4.0 | 0.00 | 0.00 | 0.00 | 80 | 1008.6 |
| 20260506081955 | 31 | 3 | 2.0 | 3.0 | 0.00 | 0.00 | 0.00 | 79 | 1008.6 |
| 20260506081454 | 32 | 348 | 1.0 | 3.0 | 0.00 | 0.00 | 0.00 | 79 | 1008.7 |
| 20260506080951 | 32 | 24 | 2.0 | 3.0 | 0.00 | 0.00 | 0.00 | 79 | 1008.5 |
| 20260506080448 | 32 | 42 | 1.0 | 3.0 | 0.00 | 0.00 | 0.00 | 78 | 1008.5 |
| 20260506073432 | 34 | 14 | 2.0 | 3.0 | 0.00 | 0.00 | 0.00 | 74 | 1008.1 |
| 20260506072929 | 34 | 340 | 2.0 | 6.0 | 0.00 | 0.00 | 0.00 | 72 | 1008.1 |
| 20260506072426 | 34 | 330 | 5.0 | 6.0 | 0.00 | 0.00 | 0.00 | 74 | 1008.1 |
| 20260506071924 | 34 | 333 | 1.0 | 5.0 | 0.00 | 0.00 | 0.00 | 74 | 1008.1 |
| 20260506071422 | 34 | 25 | 2.0 | 3.0 | 0.00 | 0.00 | 0.00 | 74 | 1007.9 |
| 20260506070918 | 34 | 32 | 1.0 | 3.0 | 0.00 | 0.00 | 0.00 | 74 | 1008.0 |
| 20260506070415 | 34 | 346 | 3.0 | 3.0 | 0.00 | 0.00 | 0.00 | 73 | 1007.9 |
| 20260506062353 | 36 | 325 | 3.0 | 6.0 | 0.00 | 0.00 | 0.00 | 69 | 1007.7 |
| 20260506061848 | 36 | 312 | 2.0 | 5.0 | 0.00 | 0.00 | 0.00 | 69 | 1007.6 |
| 20260506061345 | 36 | 327 | 3.0 | 4.0 | 0.00 | 0.00 | 0.00 | 69 | 1007.6 |
| 20260506060843 | 37 | 343 | 1.0 | 4.0 | 0.00 | 0.00 | 0.00 | 67 | 1007.5 |
| 20260506060341 | 37 | 1 | 0.0 | 7.0 | 0.00 | 0.00 | 0.00 | 66 | 1007.8 |
| 20260506051313 | 39 | 330 | 3.0 | 6.0 | 0.00 | 0.00 | 0.00 | 62 | 1007.5 |
| 20260506050811 | 40 | 314 | 3.0 | 7.0 | 0.00 | 0.00 | 0.00 | 61 | 1007.4 |
| 20260506050308 | 40 | 329 | 3.0 | 7.0 | 0.00 | 0.00 | 0.00 | 60 | 1007.3 |
| 20260506044758 | 41 | 313 | 5.0 | 11.0 | 0.00 | 0.00 | 0.00 | 57 | 1007.2 |
| 20260506044256 | 42 | 316 | 5.0 | 11.0 | 0.00 | 0.00 | 0.00 | 56 | 1007.4 |
| 20260506043753 | 42 | 333 | 4.0 | 11.0 | 0.00 | 0.00 | 0.00 | 56 | 1007.2 |
| 20260506043250 | 42 | 343 | 3.0 | 13.0 | 0.00 | 0.00 | 0.00 | 56 | 1007.2 |
| 20260506042749 | 42 | 324 | 7.0 | 10.0 | 0.00 | 0.00 | 0.00 | 56 | 1006.9 |
| 20260506042248 | 42 | 319 | 5.0 | 14.0 | 0.00 | 0.00 | 0.00 | 56 | 1007.0 |
| 20260506041746 | 42 | 304 | 3.0 | 10.0 | 0.00 | 0.00 | 0.00 | 56 | 1007.0 |
| 20260506041242 | 42 | 324 | 3.0 | 11.0 | 0.00 | 0.00 | 0.00 | 56 | 1006.9 |
| 20260506040739 | 42 | 232 | 3.0 | 9.0 | 0.00 | 0.00 | 0.00 | 56 | 1006.7 |
| 20260506040236 | 43 | 255 | 2.0 | 12.0 | 0.00 | 0.00 | 0.00 | 55 | 1006.8 |
| 20260506035733 | 43 | 200 | 2.0 | 7.0 | 0.00 | 0.00 | 0.00 | 54 | 1006.9 |
| 20260506035230 | 44 | 298 | 2.0 | 10.0 | 0.00 | 0.00 | 0.00 | 54 | 1006.9 |
| 20260506034727 | 44 | 304 | 1.0 | 7.0 | 0.00 | 0.00 | 0.00 | 54 | 1006.8 |
| 20260506034224 | 44 | 299 | 1.0 | 7.0 | 0.00 | 0.00 | 0.00 | 54 | 1006.6 |
| 20260506033721 | 44 | 321 | 3.0 | 7.0 | 0.00 | 0.00 | 0.00 | 53 | 1006.9 |
| 20260506033218 | 44 | 342 | 3.0 | 8.0 | 0.00 | 0.00 | 0.00 | 53 | 1006.8 |
| 20260506032715 | 44 | 261 | 0.0 | 5.0 | 0.00 | 0.00 | 0.00 | 53 | 1006.7 |
| 20260506032212 | 44 | 288 | 3.0 | 5.0 | 0.00 | 0.00 | 0.00 | 53 | 1006.8 |
| 20260506031709 | 44 | 315 | 3.0 | 8.0 | 0.00 | 0.00 | 0.00 | 52 | 1006.6 |
| 20260506031206 | 44 | 311 | 4.0 | 7.0 | 0.00 | 0.00 | 0.00 | 53 | 1006.7 |
| 20260506030704 | 44 | 312 | 8.0 | 9.0 | 0.00 | 0.00 | 0.00 | 52 | 1006.7 |
| 20260506030201 | 44 | 209 | 0.0 | 6.0 | 0.00 | 0.00 | 0.00 | 52 | 1006.8 |
| 20260506025658 | 43 | 276 | 1.0 | 8.0 | 0.00 | 0.00 | 0.00 | 53 | 1006.6 |
| 20260506025154 | 43 | 302 | 3.0 | 5.0 | 0.00 | 0.00 | 0.00 | 53 | 1006.5 |
| 20260506024652 | 43 | 220 | 1.0 | 4.0 | 0.00 | 0.00 | 0.00 | 54 | 1006.7 |
| 20260506024148 | 43 | 246 | 0.0 | 5.0 | 0.00 | 0.00 | 0.00 | 56 | 1006.6 |
| 20260506023644 | 43 | 318 | 2.0 | 3.0 | 0.00 | 0.00 | 0.00 | 55 | 1006.6 |
| 20260506023142 | 44 | 317 | 3.0 | 5.0 | 0.00 | 0.00 | 0.00 | 54 | 1006.3 |
| 20260506022639 | 44 | 295 | 2.0 | 7.0 | 0.00 | 0.00 | 0.00 | 53 | 1006.3 |
| 20260506022136 | 44 | 282 | 1.0 | 4.0 | 0.00 | 0.00 | 0.00 | 53 | 1006.3 |
| 20260506021634 | 45 | 221 | 1.0 | 5.0 | 0.00 | 0.00 | 0.00 | 51 | 1006.3 |
| 20260506021131 | 45 | 303 | 2.0 | 10.0 | 0.00 | 0.00 | 0.00 | 50 | 1006.5 |
| 20260506020628 | 46 | 252 | 2.0 | 8.0 | 0.00 | 0.00 | 0.00 | 49 | 1006.2 |